User: anonymous   Login
Location: Unspecified
(0.0000°N, 0.0000°E)
Time: 23:56:45
(UTC+00:00)
Language:

Hubble Space Telescope - Orbit

View from above orbital plane
View from above orbital plane
View from above satellite
View from above satellite

Ground track
Ground track

The orbit data is extracted from the following two-line orbital elements,

1 20580U 90037B   15146.66137009  .00001329  00000-0  74173-4 0  9994
2 20580 028.4706 296.0721 0003014 011.3786 093.4772 15.07407314176553
Epoch (UTC): 26 May 2015 15:52:22
Eccentricity: 0.0003014
inclination: 28.4706°
perigee height: 542 km
apogee height: 546 km
right ascension of ascending node: 296.0721°
argument of perigee: 11.3786°
revolutions per day: 15.07407314
mean anomaly at epoch: 93.4772°
orbit number at epoch: 17655

The dashed part of the orbit path shows where the satellite is in the earth's shadow,  

DLR